Content
SEND FEEDBACK

Daily
Averages
Monthly
Summary
Turkmenistan

KURTILE, TURKMENISTAN


Home > Asia > Turkmenistan
Elevation: 748 feet     Latitude: 37 58N     Longitude: 058 19E

WEATHER
 
SELECT A DAY
Number of Records: 177,354;   Date Range: 3/15/97 - 8/12/14
 
SHARE

PRINT THIS DATA

[ ← Previous Day ]
WEATHER ALMANAC - JULY 15, 2013
[ Next Day → ]
[ °C ]   °F
We're sorry. There is no daily almanac available for Kurtile, Turkmenistan on July 15, 2013.
WEATHER BY HOUR - JULY 15, 2013
[ °C ]   °F
Local TimeTemperatureDewpointHumidityBarometerVisibilityWind DirectionWind SpeedGust SpeedPrecipitationEventsConditions
1:00 AM82.4 °F51.8 °F35 %29.80 in6.2 miWSW (250°)2.2 mphPartly Cloudy
2:00 AM83.0 °F56.0 °F29 %29.76 in6.0 miSSW (200°)4.5 mph
2:00 AM82.4 °F51.8 °F35 %29.77 in6.2 miSW (230°)4.5 mphClear
3:00 AM82.4 °F51.8 °F35 %29.77 in6.2 miSSW (210°)4.5 mphScattered Clouds
4:00 AM80.6 °F51.8 °F37 %29.77 in6.2 miSW (220°)4.5 mphPartly Cloudy
5:00 AM80.6 °F51.8 °F37 %29.80 in6.2 miCalmPartly Cloudy
5:00 AM78.0 °F56.0 °F36 %29.77 in6.0 miCalmScattered Clouds
6:00 AM78.8 °F53.6 °F42 %29.80 in6.2 miWSW (240°)4.5 mphScattered Clouds
7:00 AM80.6 °F51.8 °F37 %29.80 in6.2 miWNW (300°)2.2 mphPartly Cloudy
8:00 AM84.2 °F50.0 °F30 %29.83 in6.2 miNorth (360°)4.5 mphPartly Cloudy
8:00 AM84.0 °F55.0 °F26 %29.80 in6.0 miNorth4.5 mphScattered Clouds
9:00 AM89.6 °F51.8 °F27 %29.83 in6.2 miVariable2.2 mphClear
10:00 AM91.4 °F50.0 °F24 %29.83 in6.2 miENE (70°)4.5 mphClear
11:00 AM94.0 °F55.0 °F18 %29.79 in6.0 miNNE (20°)4.5 mphScattered Clouds
11:00 AM95.0 °F50.0 °F22 %29.83 in6.2 miNE (50°)4.5 mphPartly Cloudy
12:00 PM98.6 °F41.0 °F14 %29.80 in6.2 miEast (80°)8.9 mphPartly Cloudy
1:00 PM100.4 °F41.0 °F13 %29.80 in6.2 miEast (80°)11.2 mphPartly Cloudy
2:00 PM102.2 °F41.0 °F12 %29.77 in6.2 miSE (130°)8.9 mphPartly Cloudy
2:00 PM100.0 °F45.0 °F8 %29.78 in6.0 miSSE (160°)3.5 mphScattered Clouds
3:00 PM102.2 °F41.0 °F12 %29.77 in6.2 miENE (70°)4.5 mphPartly Cloudy
4:00 PM102.2 °F41.0 °F12 %29.74 in6.2 miSE (140°)6.7 mphPartly Cloudy
5:00 PM102.0 °F48.0 °F9 %29.70 in6.0 miNorth3.5 mph
5:00 PM102.2 °F39.2 °F11 %29.74 in6.2 miNorth (360°)6.7 mphClear
6:00 PM104.0 °F39.2 °F11 %29.71 in6.2 miNE (50°)6.7 mphClear
6:30 PM102.2 °F39.2 °F11 %29.71 in6.2 miNE (50°)6.7 mphClear
7:00 PM102.2 °F41.0 °F12 %29.74 in6.2 miENE (60°)6.7 mphClear
8:00 PM98.6 °F42.8 °F15 %29.74 in6.2 miENE (70°)6.7 mphClear
8:00 PM100.0 °F49.0 °F10 %29.71 in6.0 miEast (80°)6.7 mph
8:30 PM96.8 °F42.8 °F16 %29.74 in6.2 miEast (90°)6.7 mphClear
9:00 PM95.0 °F42.8 °F16 %29.74 in6.2 miEast (100°)6.7 mphClear
9:30 PM93.2 °F44.6 °F19 %29.74 in6.2 miEast (80°)4.5 mphClear
10:00 PM91.4 °F44.6 °F20 %29.77 in6.2 miENE (70°)4.5 mphClear
10:30 PM89.6 °F44.6 °F21 %29.77 in6.2 miSouth (190°)4.5 mphClear
11:00 PM89.0 °F54.0 °F21 %29.73 in6.0 miESE (120°)4.5 mph
11:00 PM89.6 °F46.4 °F22 %29.77 in6.2 miSE (130°)4.5 mphClear
Hourly data recorded from UTAA, located miles away from Kurtile, Turkmenistan







STORIES FROM OUR PARTNERS